Regional Weather Roundup
Issued by NWS San Diego, CA

Current Version | Previous Version | Text Only | Print | Product List | Glossary On
Versions: 1 2 3 4 5 6 7 8 9 10 11 12 13 14 15 16 17 18 19 20 21 22 23 24 25 26 27 28 29 30 31 32 33 34 35 36 37 38 39 40 41 42 43 44 45 46 47 48 49 50
070
ASUS46 KSGX 230411
RWRSGX

SAN DIEGO HOURLY WEATHER ROUNDUP
NATIONAL WEATHER SERVICE SAN DIEGO CA
900 PM PDT SUN SEP 22 2019

NOTE: "FAIR" INDICATES FEW OR NO CLOUDS BELOW 12,000 FEET WITH NO
SIGNIFICANT WEATHER AND/OR OBSTRUCTIONS TO VISIBILITY.

CAZ042-043-060-061-PZZ750-775-230500-

GREATER SAN DIEGO AREA

CITY           SKY/WX    TMP DP  RH WIND       PRES   REMARKS
SAN DIEGO AP   PTCLDY    72  66  81 W5        29.91R
NATIONAL CITY    N/A    N/A N/A N/A CALM      29.91R
CHULA VISTA      N/A     72  68  89 CALM      29.81R
BROWN FIELD    PTCLDY    70  65  84 CALM      29.90R
MIRAMAR MCAS   PTCLDY    71  64  78 SW3       29.90R
MONTGOMERY FLD PTCLDY    70  66  87 W5        29.90R
GILLESPIE FLD  CLEAR     77  64  65 MISG      29.90R

$$

NORTH SAN DIEGO COUNTY

CITY           SKY/WX    TMP DP  RH WIND       PRES   REMARKS
CAMP PENDLETON CLEAR     70  67  90 SW5       29.89R
OCEANSIDE AP   PTCLDY    70  66  87 CALM      29.88R
OCEANSIDE HBR    N/A     70  67  90 CALM      29.91R
VISTA            N/A     72  65  80 CALM      29.86R
CARLSBAD       CLEAR     73  67  81 SW6       29.89R
DEL MAR          N/A     69  67  93 CALM      29.90R
LA JOLLA SCRIP   N/A     69  65  86 CALM      29.89R
FALLBROOK      FAIR      68  66  94 CALM      29.91R
ESCONDIDO        N/A     79  66  64 CALM      29.88R
SAN MARCOS       N/A     73  67  81 CALM      29.91R
POWAY            N/A     76  66  71 CALM      29.90R

$$

EAST SAN DIEGO COUNTY

CITY           SKY/WX    TMP DP  RH WIND       PRES   REMARKS
RAMONA         PTCLDY    70  49  47 CALM      29.94R
SANTEE LAKES     N/A     74  67  76 SW6       29.86R
LA MESA          N/A     71  66  83 CALM      29.84R
JAMUL            N/A     75  61  62 CALM      29.89R
MT. LAGUNA OBS   N/A     59  44  58 W5        29.84R
CAMPO            N/A     70  56  61 CALM      29.97R

$$

ORANGE COUNTY AND THE LOS ANGELES BASIN

CITY           SKY/WX    TMP DP  RH WIND       PRES   REMARKS
JOHN WAYNE AP  PTCLDY    74  64  71 S3        29.88R
LAGUNA BEACH     N/A     72  68  87 CALM      29.88R
LAKE FOREST FR   N/A     72  62  71 CALM      29.76R
HUNTINGTON BCH   N/A     70  66  88 S2        29.89R
LOS ALAMITOS   FAIR      70  61  73 CALM      29.89R
FULLERTON      CLEAR     74  59  59 CALM      29.88R
LONG BEACH     CLEAR     73  65  75 CALM      29.89R
L.A. AP        CLEAR     72  65  78 SW6       29.89R
L.A. DOWNTOWN  CLEAR     75  62  64 CALM      29.88R

$$

THE INLAND EMPIRE

CITY           SKY/WX    TMP DP  RH WIND       PRES   REMARKS
CORONA         CLEAR     74  62  66 MISG      29.90R
CHINO          CLEAR     76  54  46 CALM      29.90R
ONTARIO        PTCLDY    80  48  32 W9        29.90R
SAN BERNARDINO PTCLDY    82  45  26 NW5       29.92R
RIVERSIDE AP   CLEAR     78  52  40 CALM      29.90R
MARCH ARB      CLEAR     74  43  32 CALM      29.94R
HORSETHIEF CYN   N/A     77  45  31 NW3       29.88R
PERRIS           N/A     78  52  40 CALM      29.95R
HEMET EAST       N/A     73  40  30 CALM      29.93R
FRENCH VALLEY  FAIR      77  54  44 CALM      29.94R
TEMECULA         N/A     78  55  44 S3        29.90R

$$

SAN BERNARDINO AND RIVERSIDE COUNTY MOUNTAINS

CITY           SKY/WX    TMP DP  RH WIND       PRES   REMARKS
BIG BEAR AP    CLEAR     52  32  46 CALM      30.22R

$$

SOUTHERN DESERT INCLUDING THE COACHELLA VALLEY

CITY           SKY/WX    TMP DP  RH WIND       PRES   REMARKS
PALM SPRINGS   PTCLDY    89  47  23 N15       29.87R
THOUSAND PALMS   N/A     83  32  16 CALM      29.81R
PALM DESERT      N/A     82  42  24 CALM        N/A
THERMAL        PTCLDY    77  44  30 NW3       29.79R
BORREGO AP     FAIR      82  41  23 NW9       29.85R
BLYTHE         PTCLDY    91  43  18 W10       29.82R
IMPERIAL AP    PTCLDY    87  41  19 NE3       29.79R
EL CENTRO NAS  PTCLDY    85  33  15 N8        29.81R
YUMA AZ        CLEAR     90  62  39 SW5       29.82R
MEXICALI       CLEAR     86  61  42 SE5       29.81R

$$

UPPER DESERT

CITY           SKY/WX    TMP DP  RH WIND       PRES   REMARKS
HESPERIA         N/A     73  43  34 S8        29.91R
APPLE VALLEY     N/A     71  44  37 N3        29.96R
PALMDALE       CLEAR     76  40  27 SW13      29.99R
LANCASTER      CLEAR     72  42  34 SW8       29.98R
EDWARDS AFB    CLEAR     74  38  27 SW10      29.94R
DAGGETT        CLEAR     79  28  15 W7        29.92R
29 PALMS N     PTCLDY    79  28  15 S8        30.00R
NEEDLES        MOCLDY    86  22   9 W7        29.86R

$$

REGIONAL REPORTS

CITY           SKY/WX    TMP DP  RH WIND       PRES   REMARKS
SANTA BARBARA  CLEAR     66  63  90 CALM      29.87R
SANDBERG       CLEAR     67  34  29 S6        30.11R
LAS VEGAS NV   MOCLDY    82  27  13 S6        29.91R
PHOENIX AZ     PTCLDY    93  44  18 VRB3      29.86R
TIJUANA        CLEAR     72  64  78 W8        29.93R
ENSENADA NW      N/A     70  32  24 CALM      29.85R

$$

OFFSHORE ISLANDS

CITY           SKY/WX    TMP DP  RH WIND       PRES   REMARKS
CATALINA ARPT  CLEAR     74  45  35 CALM      29.95R
SAN CLEMENTE I MOCLDY    63  32  31 SW7       29.91R
SAN NICOLAS IS CLEAR    N/A N/A N/A CALM      29.89R

$$

MARINE AND OFFSHORE BUOY REPORTS

STATION/POSITION SKY/WX   TEMP    WIND        PRES    VSBY  SWELL
                          AIR SEA DIR/SP/G                  HT/PER/DIR
                          (F)     (DEG/KT/KT) (MB)    (MI)  (FT/S/D)
TANNER BANKS               62 66  310/ 10/ 14 1012.6R         5/290/ 8
S CLEMENTE BASIN           68 70  250/  6/  8 1012.3R         3/190/17
SAN NICOLAS IS.               65                N/A           2/210/18
SO. S. ROSA ISLA           63 64  310/ 16/ 21 1012.5R         5/300/ 9
W. S. BARBARA CH                                N/A
M. S. BARBARA CH           63 66  240/ 10/ 12 1011.8R         3/250/ 8
S. MONICA BASIN            69 71  340/  4/  6 1011.9R         2/190/17
S PEDRO CHANNEL               70                N/A           2/180/18
OCEANSIDE OFFSHR              73                N/A           3/200/18
TORREY PINES OTR              72                N/A           2/210/18
SAN DIEGO BAY                 71              1011.8
IMPERIAL BEACH                70                N/A           2/230/18
POINT LOMA SOUTH              73                N/A           2/190/18

$$





USA.gov is the U.S. government's official web portal to all federal, state and local government web resources and services.